WAT8937 FMMI-FSIA

Flight info

Callsign WAT8937
Flight time 2h 6m
Altitude 33000
Route SEMEM1W GATLA UL441 MIROV/N0488F340 UL441 NORSI/N0487F330 DCT IMPOX IMPOX1E
Aircraft B77L/H-SDE1E2E3FGHIJ2J3J4J5M1RWXY/LB1D1

Departure

Time 2026-04-27 07:40
Airport Ivato International Airport (FMMI)

Arrival

Time 2026-04-27 09:46
Airport Seychelles International Airport (FSIA)
Time Latitude Longitude Altitude Speed Heading
2026-04-27 07:11 -18.79993 47.48091 4182 ft 0 kts 189°
2026-04-27 07:31 -18.79984 47.48093 4182 ft 2 kts 189°
2026-04-27 07:31 -18.79975 47.48095 4182 ft 2 kts 189°
2026-04-27 07:32 -18.79960 47.48095 4181 ft 2 kts 173°
2026-04-27 07:32 -18.79945 47.48092 4180 ft 2 kts 160°
2026-04-27 07:32 -18.79931 47.48085 4179 ft 2 kts 147°
2026-04-27 07:32 -18.79919 47.48076 4178 ft 2 kts 135°
2026-04-27 07:33 -18.79910 47.48064 4177 ft 2 kts 122°
2026-04-27 07:33 -18.79903 47.48050 4176 ft 2 kts 110°
2026-04-27 07:33 -18.79899 47.48038 4176 ft 0 kts 99°
2026-04-27 07:33 -18.79898 47.48033 4176 ft 0 kts 98°
2026-04-27 07:35 -18.79899 47.48037 4176 ft 2 kts 98°
2026-04-27 07:35 -18.79899 47.48069 4176 ft 6 kts 76°
2026-04-27 07:35 -18.79825 47.48112 4174 ft 11 kts 11°
2026-04-27 07:36 -18.79767 47.48124 4171 ft 13 kts 16°
2026-04-27 07:36 -18.79737 47.48206 4168 ft 13 kts 99°
2026-04-27 07:36 -18.79756 47.48301 4166 ft 14 kts 101°
2026-04-27 07:36 -18.79775 47.48416 4164 ft 17 kts 99°
2026-04-27 07:37 -18.79796 47.48555 4161 ft 20 kts 99°
2026-04-27 07:37 -18.79819 47.48716 4158 ft 23 kts 98°
2026-04-27 07:37 -18.79845 47.48894 4155 ft 25 kts 99°
2026-04-27 07:37 -18.79873 47.49075 4152 ft 21 kts 98°
2026-04-27 07:38 -18.79884 47.49218 4147 ft 18 kts 98°
2026-04-27 07:38 -18.79895 47.49295 4143 ft 5 kts 102°
2026-04-27 07:38 -18.79910 47.49298 4143 ft 1 kts 220°
2026-04-27 07:38 -18.79911 47.49285 4143 ft 2 kts 285°
2026-04-27 07:39 -18.79907 47.49272 4144 ft 0 kts 290°
2026-04-27 07:39 -18.79906 47.49271 4144 ft 1 kts 290°
2026-04-27 07:39 -18.79885 47.49183 4149 ft 38 kts 281°
2026-04-27 07:39 -18.79809 47.48649 4159 ft 109 kts 279°
2026-04-27 07:40 -18.79654 47.47606 4177 ft 175 kts 279°
2026-04-27 07:40 -18.79434 47.46169 4408 ft 214 kts 279°
2026-04-27 07:40 -18.79201 47.44671 5315 ft 210 kts 278°
2026-04-27 07:40 -18.78971 47.43124 6087 ft 216 kts 278°
2026-04-27 07:41 -18.78740 47.41568 6591 ft 222 kts 278°
2026-04-27 07:41 -18.78505 47.39955 7158 ft 222 kts 278°
2026-04-27 07:41 -18.78077 47.38371 7544 ft 234 kts 301°
2026-04-27 07:41 -18.76886 47.37114 7755 ft 252 kts 334°
2026-04-27 07:42 -18.75152 47.36650 7989 ft 270 kts
2026-04-27 07:42 -18.73329 47.37292 8252 ft 285 kts 39°
2026-04-27 07:42 -18.71958 47.38774 8890 ft 288 kts 51°
2026-04-27 07:42 -18.70687 47.40402 9705 ft 288 kts 52°
2026-04-27 07:43 -18.69403 47.42060 10404 ft 294 kts 52°
2026-04-27 07:43 -18.68090 47.43756 10816 ft 310 kts 51°
2026-04-27 07:43 -18.66687 47.45568 11212 ft 327 kts 51°
2026-04-27 07:43 -18.65208 47.47478 11610 ft 343 kts 51°
2026-04-27 07:44 -18.63656 47.49481 12030 ft 359 kts 51°
2026-04-27 07:44 -18.62045 47.51558 12447 ft 374 kts 51°
2026-04-27 07:44 -18.60388 47.53693 12918 ft 387 kts 51°
2026-04-27 07:44 -18.58663 47.55917 13545 ft 394 kts 51°
2026-04-27 07:45 -18.56918 47.58164 14267 ft 398 kts 51°
2026-04-27 07:45 -18.55154 47.60436 14959 ft 402 kts 50°
2026-04-27 07:45 -18.53388 47.62708 15607 ft 407 kts 50°
2026-04-27 07:45 -18.51564 47.65055 16269 ft 412 kts 50°
2026-04-27 07:46 -18.49745 47.67395 16885 ft 417 kts 49°
2026-04-27 07:46 -18.47888 47.69782 17485 ft 422 kts 49°
2026-04-27 07:46 -18.45928 47.72055 18103 ft 424 kts 41°
2026-04-27 07:46 -18.43590 47.73971 18698 ft 426 kts 30°
2026-04-27 07:47 -18.41016 47.75579 19332 ft 428 kts 27°
2026-04-27 07:47 -18.38441 47.77127 19990 ft 431 kts 27°
2026-04-27 07:47 -18.35825 47.78696 20633 ft 433 kts 27°
2026-04-27 07:47 -18.33198 47.80273 21213 ft 437 kts 27°
2026-04-27 07:48 -18.30526 47.81876 21778 ft 442 kts 26°
2026-04-27 07:48 -18.27873 47.83467 22395 ft 444 kts 26°
2026-04-27 07:48 -18.25178 47.85084 22999 ft 447 kts 26°
2026-04-27 07:48 -18.22454 47.86717 23504 ft 452 kts 26°
2026-04-27 07:49 -18.19692 47.88373 23988 ft 457 kts 26°
2026-04-27 07:49 -18.16913 47.90038 24506 ft 461 kts 26°
2026-04-27 07:49 -18.14138 47.91700 25009 ft 465 kts 26°
2026-04-27 07:49 -18.11306 47.93397 25539 ft 469 kts 26°
2026-04-27 07:50 -18.08454 47.95104 26052 ft 473 kts 26°
2026-04-27 07:50 -18.05579 47.96825 26524 ft 478 kts 25°
2026-04-27 07:50 -18.02690 47.98553 27034 ft 481 kts 25°
2026-04-27 07:50 -17.99752 48.00310 27538 ft 486 kts 25°
2026-04-27 07:51 -17.96780 48.02086 28040 ft 490 kts 25°
2026-04-27 07:51 -17.93834 48.03847 28546 ft 494 kts 25°
2026-04-27 07:51 -17.90821 48.05647 29005 ft 498 kts 25°
2026-04-27 07:51 -17.87768 48.07470 29476 ft 502 kts 25°
2026-04-27 07:52 -17.84735 48.09280 29990 ft 503 kts 26°
2026-04-27 07:52 -17.81669 48.11110 30496 ft 505 kts 26°
2026-04-27 07:52 -17.78590 48.12947 30976 ft 507 kts 26°
2026-04-27 07:52 -17.75531 48.14771 31410 ft 509 kts 26°
2026-04-27 07:53 -17.72437 48.16615 31801 ft 512 kts 27°
2026-04-27 07:53 -17.69328 48.18467 32231 ft 513 kts 27°
2026-04-27 07:53 -17.66241 48.20306 32579 ft 515 kts 27°
2026-04-27 07:53 -17.63104 48.22173 32844 ft 515 kts 27°
2026-04-27 07:54 -17.60008 48.24016 33085 ft 513 kts 27°
2026-04-27 07:54 -17.53737 48.27744 33105 ft 522 kts 27°
2026-04-27 07:55 -17.47389 48.31516 33106 ft 526 kts 27°
2026-04-27 07:55 -17.40975 48.35324 33097 ft 531 kts 26°
2026-04-27 07:56 -17.34539 48.39143 33099 ft 530 kts 26°
2026-04-27 07:56 -17.28145 48.42934 33096 ft 528 kts 26°
2026-04-27 07:57 -17.21728 48.46734 33103 ft 529 kts 26°
2026-04-27 07:57 -17.15347 48.50510 33102 ft 527 kts 26°
2026-04-27 07:58 -17.08936 48.54301 33102 ft 528 kts 26°
2026-04-27 07:58 -17.02512 48.58097 33103 ft 526 kts 26°
2026-04-27 07:59 -16.96286 48.61772 33102 ft 526 kts 26°
2026-04-27 07:59 -16.86679 48.67437 33087 ft 525 kts 25°
2026-04-27 08:00 -16.80303 48.71195 33098 ft 525 kts 25°
2026-04-27 08:00 -16.73907 48.74960 33104 ft 525 kts 25°
2026-04-27 08:01 -16.67526 48.78714 33104 ft 524 kts 25°
2026-04-27 08:01 -16.61176 48.82447 33096 ft 523 kts 25°
2026-04-27 08:02 -16.54789 48.86198 33099 ft 524 kts 25°
2026-04-27 08:02 -16.48445 48.89921 33091 ft 524 kts 25°
2026-04-27 08:03 -16.42088 48.93648 33081 ft 524 kts 25°
2026-04-27 08:03 -16.35731 48.97374 33078 ft 522 kts 24°
2026-04-27 08:04 -16.29368 49.01100 33081 ft 522 kts 24°
2026-04-27 08:04 -16.23027 49.04810 33073 ft 523 kts 24°
2026-04-27 08:05 -16.16705 49.08506 33072 ft 521 kts 24°
2026-04-27 08:05 -16.10370 49.12206 33069 ft 522 kts 24°
2026-04-27 08:06 -16.04008 49.15921 33072 ft 523 kts 24°
2026-04-27 08:06 -15.97661 49.19653 33060 ft 523 kts 24°
2026-04-27 08:07 -15.91336 49.23404 33063 ft 522 kts 24°
2026-04-27 08:07 -15.84968 49.27175 33056 ft 522 kts 24°
2026-04-27 08:08 -15.78667 49.30903 33052 ft 522 kts 24°
2026-04-27 08:08 -15.72309 49.34661 33048 ft 523 kts 24°
2026-04-27 08:09 -15.65975 49.38403 33044 ft 521 kts 24°
2026-04-27 08:09 -15.59647 49.42136 33036 ft 522 kts 24°
2026-04-27 08:10 -15.53331 49.45861 33022 ft 522 kts 24°
2026-04-27 08:10 -15.47000 49.49591 33003 ft 522 kts 24°
2026-04-27 08:11 -15.40664 49.53321 33005 ft 521 kts 24°
2026-04-27 08:11 -15.34320 49.57054 33000 ft 523 kts 24°
2026-04-27 08:12 -15.28000 49.60771 33000 ft 521 kts 24°
2026-04-27 08:12 -15.21685 49.64481 33006 ft 521 kts 25°
2026-04-27 08:13 -15.15334 49.68210 32993 ft 520 kts 24°
2026-04-27 08:13 -15.09028 49.71910 32990 ft 521 kts 24°
2026-04-27 08:14 -15.02672 49.75637 32988 ft 521 kts 24°
2026-04-27 08:14 -14.96346 49.79279 32991 ft 520 kts 23°
2026-04-27 08:15 -14.89955 49.82869 32996 ft 520 kts 23°
2026-04-27 08:15 -14.83550 49.86469 33011 ft 520 kts 23°
2026-04-27 08:16 -14.77196 49.90042 32992 ft 518 kts 23°
2026-04-27 08:16 -14.70827 49.93621 32983 ft 520 kts 23°
2026-04-27 08:17 -14.64461 49.97198 32955 ft 521 kts 23°
2026-04-27 08:17 -14.58125 50.00758 32945 ft 519 kts 23°
2026-04-27 08:18 -14.51735 50.04343 32937 ft 521 kts 23°
2026-04-27 08:18 -14.45373 50.07913 32927 ft 519 kts 24°
2026-04-27 08:19 -14.38989 50.11491 32918 ft 519 kts 24°
2026-04-27 08:19 -14.32636 50.15051 32911 ft 520 kts 24°
2026-04-27 08:20 -14.26257 50.18631 32906 ft 520 kts 24°
2026-04-27 08:20 -14.19953 50.22273 32902 ft 520 kts 25°
2026-04-27 08:21 -14.13643 50.25923 32896 ft 519 kts 25°
2026-04-27 08:21 -14.07359 50.29550 32892 ft 519 kts 25°
2026-04-27 08:22 -14.01047 50.33190 32893 ft 518 kts 25°
2026-04-27 08:22 -13.94729 50.36830 32895 ft 519 kts 25°
2026-04-27 08:23 -13.88437 50.40452 32891 ft 519 kts 25°
2026-04-27 08:23 -13.82103 50.44096 32889 ft 520 kts 25°
2026-04-27 08:24 -13.75759 50.47742 32885 ft 521 kts 25°
2026-04-27 08:24 -13.69456 50.51364 32888 ft 520 kts 25°
2026-04-27 08:25 -13.63138 50.54991 32890 ft 521 kts 25°
2026-04-27 08:25 -13.56793 50.58630 32893 ft 520 kts 25°
2026-04-27 08:26 -13.50449 50.62265 32892 ft 521 kts 25°
2026-04-27 08:26 -13.44089 50.65906 32884 ft 522 kts 25°
2026-04-27 08:27 -13.37773 50.69522 32882 ft 521 kts 25°
2026-04-27 08:27 -13.31404 50.73164 32884 ft 521 kts 25°
2026-04-27 08:28 -13.25088 50.76775 32885 ft 521 kts 25°
2026-04-27 08:28 -13.18742 50.80400 32882 ft 520 kts 25°
2026-04-27 08:29 -13.12387 50.84028 32887 ft 521 kts 25°
2026-04-27 08:29 -13.06016 50.87663 32888 ft 522 kts 25°
2026-04-27 08:30 -12.99684 50.91274 32889 ft 522 kts 25°
2026-04-27 08:30 -12.93298 50.94913 32889 ft 523 kts 25°
2026-04-27 08:31 -12.86965 50.98521 32889 ft 522 kts 25°
2026-04-27 08:31 -12.80564 51.02164 32889 ft 523 kts 25°
2026-04-27 08:32 -12.74210 51.05779 32890 ft 523 kts 25°
2026-04-27 08:32 -12.67825 51.09410 32889 ft 522 kts 25°
2026-04-27 08:33 -12.61459 51.13027 32889 ft 523 kts 26°
2026-04-27 08:33 -12.55093 51.16643 32889 ft 522 kts 26°
2026-04-27 08:34 -12.48721 51.20260 32886 ft 521 kts 26°
2026-04-27 08:34 -12.42361 51.23867 32886 ft 521 kts 26°
2026-04-27 08:35 -12.36003 51.27472 32883 ft 522 kts 26°
2026-04-27 08:35 -12.29635 51.31080 32879 ft 522 kts 26°
2026-04-27 08:36 -12.23271 51.34685 32874 ft 523 kts 26°
2026-04-27 08:36 -12.16901 51.38290 32873 ft 522 kts 26°
2026-04-27 08:37 -12.10531 51.41894 32873 ft 522 kts 26°
2026-04-27 08:37 -12.04176 51.45490 32874 ft 521 kts 26°
2026-04-27 08:38 -11.97825 51.49083 32877 ft 521 kts 26°
2026-04-27 08:38 -11.91473 51.52673 32881 ft 521 kts 26°
2026-04-27 08:39 -11.85106 51.56271 32885 ft 522 kts 26°
2026-04-27 08:39 -11.78749 51.59860 32891 ft 521 kts 26°
2026-04-27 08:40 -11.72419 51.63433 32894 ft 521 kts 26°
2026-04-27 08:40 -11.66067 51.67017 32886 ft 519 kts 26°
2026-04-27 08:41 -11.59691 51.70617 32886 ft 521 kts 26°
2026-04-27 08:41 -11.53352 51.74196 32887 ft 520 kts 26°
2026-04-27 08:42 -11.47005 51.77777 32887 ft 520 kts 26°
2026-04-27 08:42 -11.40680 51.81344 32887 ft 520 kts 26°
2026-04-27 08:43 -11.34314 51.84932 32888 ft 520 kts 26°
2026-04-27 08:43 -11.27963 51.88510 32888 ft 520 kts 26°
2026-04-27 08:44 -11.21618 51.92083 32888 ft 521 kts 26°
2026-04-27 08:44 -11.15288 51.95645 32889 ft 520 kts 26°
2026-04-27 08:45 -11.08920 51.99226 32889 ft 520 kts 26°
2026-04-27 08:45 -11.02595 52.02782 32890 ft 520 kts 26°
2026-04-27 08:46 -10.96219 52.06365 32884 ft 520 kts 26°
2026-04-27 08:46 -10.89897 52.09916 32873 ft 519 kts 26°
2026-04-27 08:47 -10.83563 52.13471 32869 ft 520 kts 26°
2026-04-27 08:47 -10.77227 52.17027 32870 ft 519 kts 26°
2026-04-27 08:48 -10.70894 52.20578 32870 ft 519 kts 26°
2026-04-27 08:48 -10.64539 52.24140 32870 ft 519 kts 26°
2026-04-27 08:49 -10.58201 52.27691 32870 ft 520 kts 26°
2026-04-27 08:49 -10.51845 52.31251 32871 ft 520 kts 26°
2026-04-27 08:50 -10.45499 52.34803 32871 ft 519 kts 26°
2026-04-27 08:50 -10.39175 52.38341 32871 ft 518 kts 27°
2026-04-27 08:51 -10.32826 52.41892 32872 ft 517 kts 27°
2026-04-27 08:51 -10.26505 52.45425 32872 ft 517 kts 27°
2026-04-27 08:52 -10.20215 52.48939 32872 ft 517 kts 27°
2026-04-27 08:52 -10.13887 52.52473 32872 ft 518 kts 27°
2026-04-27 08:53 -10.07547 52.56012 32872 ft 518 kts 27°
2026-04-27 08:53 -10.01234 52.59534 32871 ft 517 kts 27°
2026-04-27 08:54 -9.94920 52.63057 32870 ft 517 kts 27°
2026-04-27 08:54 -9.88587 52.66589 32859 ft 516 kts 27°
2026-04-27 08:55 -9.82317 52.70085 32864 ft 516 kts 27°
2026-04-27 08:55 -9.75986 52.73614 32863 ft 517 kts 27°
2026-04-27 08:56 -9.69694 52.77120 32856 ft 516 kts 27°
2026-04-27 08:56 -9.63382 52.80635 32852 ft 516 kts 27°
2026-04-27 08:57 -9.53916 52.85903 32845 ft 515 kts 27°
2026-04-27 08:58 -9.47636 52.89396 32850 ft 514 kts 27°
2026-04-27 08:58 -9.41353 52.92889 32848 ft 515 kts 27°
2026-04-27 08:59 -9.35053 52.96391 32848 ft 516 kts 27°
2026-04-27 08:59 -9.28764 52.99885 32850 ft 514 kts 27°
2026-04-27 09:00 -9.22451 53.03391 32847 ft 514 kts 27°
2026-04-27 09:00 -9.16209 53.06856 32855 ft 514 kts 27°
2026-04-27 09:01 -9.09928 53.10341 32868 ft 514 kts 27°
2026-04-27 09:01 -9.03652 53.13822 32866 ft 513 kts 27°
2026-04-27 09:02 -8.97402 53.17287 32868 ft 512 kts 27°
2026-04-27 09:02 -8.91101 53.20779 32869 ft 513 kts 27°
2026-04-27 09:03 -8.84853 53.24241 32869 ft 514 kts 27°
2026-04-27 09:03 -8.78564 53.27723 32868 ft 514 kts 27°
2026-04-27 09:04 -8.72284 53.31200 32869 ft 514 kts 27°
2026-04-27 09:04 -8.65968 53.34695 32869 ft 513 kts 27°
2026-04-27 09:05 -8.59696 53.38164 32870 ft 514 kts 27°
2026-04-27 09:05 -8.53394 53.41649 32870 ft 514 kts 27°
2026-04-27 09:06 -8.47134 53.45108 32870 ft 514 kts 27°
2026-04-27 09:06 -8.40831 53.48591 32870 ft 514 kts 27°
2026-04-27 09:07 -8.34552 53.52059 32870 ft 514 kts 27°
2026-04-27 09:07 -8.28274 53.55525 32860 ft 513 kts 28°
2026-04-27 09:08 -8.22007 53.58984 32851 ft 513 kts 28°
2026-04-27 09:08 -8.15719 53.62452 32849 ft 514 kts 28°
2026-04-27 09:09 -8.09420 53.65927 32848 ft 514 kts 27°
2026-04-27 09:09 -8.03109 53.69406 32847 ft 514 kts 27°
2026-04-27 09:10 -7.96846 53.72857 32847 ft 513 kts 28°
2026-04-27 09:10 -7.90578 53.76311 32848 ft 514 kts 27°
2026-04-27 09:11 -7.84267 53.79786 32848 ft 514 kts 28°
2026-04-27 09:11 -7.77989 53.83242 32850 ft 514 kts 28°
2026-04-27 09:12 -7.71724 53.86690 32849 ft 514 kts 28°
2026-04-27 09:12 -7.65422 53.90157 32847 ft 514 kts 28°
2026-04-27 09:13 -7.59128 53.93618 32850 ft 514 kts 28°
2026-04-27 09:13 -7.52829 53.97082 32853 ft 513 kts 28°
2026-04-27 09:14 -7.46555 54.00530 32859 ft 512 kts 28°
2026-04-27 09:14 -7.40276 54.03979 32854 ft 513 kts 28°
2026-04-27 09:15 -7.34019 54.07416 32848 ft 513 kts 28°
2026-04-27 09:15 -7.27688 54.10776 32850 ft 512 kts 24°
2026-04-27 09:16 -7.21142 54.13664 32846 ft 511 kts 22°
2026-04-27 09:16 -7.14595 54.16530 32850 ft 511 kts 22°
2026-04-27 09:17 -7.08073 54.19384 32850 ft 510 kts 22°
2026-04-27 09:17 -7.01558 54.22233 32850 ft 511 kts 22°
2026-04-27 09:18 -6.95012 54.25096 32853 ft 511 kts 22°
2026-04-27 09:18 -6.88470 54.27955 32853 ft 511 kts 22°
2026-04-27 09:19 -6.81934 54.30812 32850 ft 511 kts 22°
2026-04-27 09:19 -6.75379 54.33675 32850 ft 511 kts 22°
2026-04-27 09:20 -6.68867 54.36520 32849 ft 510 kts 22°
2026-04-27 09:20 -6.62331 54.39373 32851 ft 510 kts 22°
2026-04-27 09:21 -6.55807 54.42222 32853 ft 509 kts 22°
2026-04-27 09:21 -6.49354 54.45038 32857 ft 501 kts 22°
2026-04-27 09:22 -6.42953 54.47830 32400 ft 502 kts 22°
2026-04-27 09:22 -6.39703 54.49248 31970 ft 506 kts 22°
2026-04-27 09:22 -6.36465 54.50660 31729 ft 506 kts 22°
2026-04-27 09:23 -6.30049 54.53457 31555 ft 499 kts 22°
2026-04-27 09:23 -6.26869 54.54843 31423 ft 497 kts 22°
2026-04-27 09:23 -6.23690 54.56229 31213 ft 497 kts 22°
2026-04-27 09:23 -6.20481 54.57628 31014 ft 497 kts 22°
2026-04-27 09:24 -6.17315 54.59007 30862 ft 496 kts 22°
2026-04-27 09:24 -6.14163 54.60381 30687 ft 495 kts 22°
2026-04-27 09:24 -6.10996 54.61760 30525 ft 494 kts 22°
2026-04-27 09:24 -6.07826 54.63142 30359 ft 493 kts 23°
2026-04-27 09:25 -6.04652 54.64523 30205 ft 492 kts 23°
2026-04-27 09:25 -6.01529 54.65884 30052 ft 491 kts 22°
2026-04-27 09:25 -5.98371 54.67258 29884 ft 491 kts 23°
2026-04-27 09:25 -5.95229 54.68627 29712 ft 490 kts 23°
2026-04-27 09:26 -5.92121 54.69980 29524 ft 486 kts 23°
2026-04-27 09:26 -5.89009 54.71334 29096 ft 480 kts 23°
2026-04-27 09:26 -5.85975 54.72655 28590 ft 476 kts 23°
2026-04-27 09:26 -5.82923 54.73983 28073 ft 472 kts 23°
2026-04-27 09:27 -5.79920 54.75290 27548 ft 469 kts 23°
2026-04-27 09:27 -5.76912 54.76598 27026 ft 466 kts 23°
2026-04-27 09:27 -5.73951 54.77886 26488 ft 463 kts 23°
2026-04-27 09:27 -5.70992 54.79173 25947 ft 460 kts 23°
2026-04-27 09:28 -5.68052 54.80452 25408 ft 457 kts 24°
2026-04-27 09:28 -5.65135 54.81720 24860 ft 455 kts 24°
2026-04-27 09:28 -5.62227 54.82984 24319 ft 452 kts 24°
2026-04-27 09:28 -5.59363 54.84230 23779 ft 450 kts 24°
2026-04-27 09:29 -5.56488 54.85479 23235 ft 447 kts 24°
2026-04-27 09:29 -5.53631 54.86720 22697 ft 444 kts 24°
2026-04-27 09:29 -5.50801 54.87951 22160 ft 442 kts 24°
2026-04-27 09:29 -5.47973 54.89179 21642 ft 440 kts 24°
2026-04-27 09:30 -5.45165 54.90400 21109 ft 438 kts 24°
2026-04-27 09:30 -5.42372 54.91613 20564 ft 436 kts 24°
2026-04-27 09:30 -5.39587 54.92823 20016 ft 434 kts 24°
2026-04-27 09:30 -5.36840 54.94016 19475 ft 432 kts 24°
2026-04-27 09:31 -5.34079 54.95216 18929 ft 430 kts 23°
2026-04-27 09:31 -5.31340 54.96405 18390 ft 428 kts 23°
2026-04-27 09:31 -5.28612 54.97590 17850 ft 426 kts 23°
2026-04-27 09:31 -5.25887 54.98774 17311 ft 423 kts 23°
2026-04-27 09:32 -5.23176 54.99951 16770 ft 420 kts 23°
2026-04-27 09:32 -5.20514 55.01107 16141 ft 413 kts 23°
2026-04-27 09:32 -5.17907 55.02239 15673 ft 398 kts 23°
2026-04-27 09:32 -5.15423 55.03317 15263 ft 386 kts 23°
2026-04-27 09:33 -5.12960 55.04387 14762 ft 385 kts 22°
2026-04-27 09:33 -5.10499 55.05455 14235 ft 385 kts 23°
2026-04-27 09:33 -5.08033 55.06525 13727 ft 384 kts 23°
2026-04-27 09:33 -5.05591 55.07584 13229 ft 382 kts 23°
2026-04-27 09:34 -5.03154 55.08642 12734 ft 380 kts 22°
2026-04-27 09:34 -5.00698 55.09707 12238 ft 379 kts 22°
2026-04-27 09:34 -4.98305 55.10745 11752 ft 377 kts 22°
2026-04-27 09:34 -4.95883 55.11796 11258 ft 376 kts 22°
2026-04-27 09:35 -4.93477 55.12839 10802 ft 373 kts 22°
2026-04-27 09:35 -4.91119 55.13862 10643 ft 361 kts 23°
2026-04-27 09:35 -4.88851 55.14846 10580 ft 347 kts 23°
2026-04-27 09:35 -4.86669 55.15793 10472 ft 335 kts 23°
2026-04-27 09:36 -4.84558 55.16709 10295 ft 322 kts 23°
2026-04-27 09:36 -4.82542 55.17584 10227 ft 307 kts 22°
2026-04-27 09:36 -4.80597 55.18427 10086 ft 298 kts 22°
2026-04-27 09:36 -4.78736 55.19234 9885 ft 291 kts 22°
2026-04-27 09:37 -4.76862 55.20046 9479 ft 293 kts 22°
2026-04-27 09:37 -4.74982 55.20861 9083 ft 294 kts 22°
2026-04-27 09:37 -4.73095 55.21679 8711 ft 294 kts 22°
2026-04-27 09:37 -4.71207 55.22497 8294 ft 294 kts 22°
2026-04-27 09:38 -4.69350 55.23302 7968 ft 286 kts 22°
2026-04-27 09:38 -4.67524 55.24093 7648 ft 285 kts 22°
2026-04-27 09:38 -4.65695 55.24885 7289 ft 285 kts 22°
2026-04-27 09:38 -4.63877 55.25673 6938 ft 285 kts 22°
2026-04-27 09:39 -4.62049 55.26465 6583 ft 285 kts 22°
2026-04-27 09:39 -4.60216 55.27258 6221 ft 285 kts 22°
2026-04-27 09:39 -4.58397 55.28046 5878 ft 279 kts 22°
2026-04-27 09:39 -4.56616 55.28818 5554 ft 278 kts 22°
2026-04-27 09:40 -4.54847 55.29623 5196 ft 279 kts 31°
2026-04-27 09:40 -4.53411 55.30922 4871 ft 276 kts 50°
2026-04-27 09:40 -4.52274 55.32431 4509 ft 266 kts 54°
2026-04-27 09:40 -4.51256 55.33875 4204 ft 241 kts 54°
2026-04-27 09:41 -4.50333 55.35197 3964 ft 225 kts 57°
2026-04-27 09:41 -4.49777 55.36615 3692 ft 221 kts 81°
2026-04-27 09:41 -4.49873 55.38096 3455 ft 204 kts 109°
2026-04-27 09:41 -4.50516 55.39310 3246 ft 192 kts 132°
2026-04-27 09:42 -4.51472 55.40200 3049 ft 187 kts 141°
2026-04-27 09:42 -4.52472 55.41033 2872 ft 186 kts 144°
2026-04-27 09:42 -4.53532 55.41813 2709 ft 185 kts 147°
2026-04-27 09:42 -4.54582 55.42550 2542 ft 182 kts 147°
2026-04-27 09:43 -4.55582 55.43251 2368 ft 171 kts 147°
2026-04-27 09:43 -4.56563 55.43937 2218 ft 168 kts 148°
2026-04-27 09:43 -4.57524 55.44606 2107 ft 167 kts 148°
2026-04-27 09:43 -4.58485 55.45255 1972 ft 166 kts 148°
2026-04-27 09:44 -4.59455 55.45903 1789 ft 164 kts 149°
2026-04-27 09:44 -4.60410 55.46534 1706 ft 164 kts 149°
2026-04-27 09:44 -4.61378 55.47144 1639 ft 165 kts 150°
2026-04-27 09:44 -4.62355 55.47741 1458 ft 163 kts 151°
2026-04-27 09:45 -4.63354 55.48315 1232 ft 163 kts 153°
2026-04-27 09:45 -4.64362 55.48840 971 ft 165 kts 155°
2026-04-27 09:45 -4.65352 55.49446 696 ft 167 kts 141°
2026-04-27 09:45 -4.66114 55.50327 391 ft 171 kts 127°
2026-04-27 09:46 -4.66813 55.51306 40 ft 167 kts 126°
2026-04-27 09:46 -4.67408 55.52147 21 ft 128 kts 124°
2026-04-27 09:46 -4.67754 55.52645 20 ft 23 kts 125°